This is the latest recevied weather packets stored in our database for station/object VY2CRA-4. If no packets are shown the sender has not sent any weather packets the latest 10 day(s).
| Time | Temp. | Humidity | Pressure | Rain* | Wind** | Luminosity | Snow |
|---|---|---|---|---|---|---|---|
| 1788484195 | 22.78° C | 38% | 1014 hPa | 0 mm | - | - | - |
| 1788482994 | 22.78° C | 36% | 1014.1 hPa | 0 mm | - | - | - |
| 1788481794 | 23.33° C | 35% | 1014.2 hPa | 0 mm | - | - | - |
| 1788480593 | 23.33° C | 33% | 1014.3 hPa | 0 mm | - | - | - |
| 1788479392 | 23.89° C | 32% | 1014.3 hPa | 0 mm | - | - | - |
| 1788478191 | 24.44° C | 30% | 1014.4 hPa | 0 mm | - | - | - |
| 1788476990 | 25° C | 28% | 1014.3 hPa | 0 mm | - | - | - |
| 1788475789 | 25.56° C | 27% | 1014.5 hPa | 0 mm | - | - | - |
| 1788474588 | 26.11° C | 26% | 1014.4 hPa | 0 mm | - | - | - |
| 1788473387 | 26.67° C | 25% | 1014.4 hPa | 0 mm | - | - | - |
| 1788472186 | 27.22° C | 23% | 1014.6 hPa | 0 mm | - | - | - |
| 1788470985 | 27.78° C | 22% | 1014.6 hPa | 0 mm | - | - | - |
| 1788468583 | 28.33° C | 20% | 1014.7 hPa | 0 mm | - | - | - |
| 1788467382 | 28.89° C | 19% | 1014.9 hPa | 0 mm | - | - | - |
| 1788464980 | 28.89° C | 19% | 1015.1 hPa | 0 mm | - | - | - |
| 1788462579 | 28.89° C | 19% | 1015.5 hPa | 0 mm | - | - | - |
| 1788461378 | 29.44° C | 18% | 1015.7 hPa | 0 mm | - | - | - |
| 1788460176 | 28.89° C | 19% | 1015.9 hPa | 0 mm | - | - | - |
| 1788458976 | 28.33° C | 20% | 1015.9 hPa | 0 mm | - | - | - |
| 1788451770 | 28.89° C | 19% | 1016.6 hPa | 0 mm | - | - | - |
| 1788449370 | 29.44° C | 18% | 1017 hPa | 0 mm | - | - | - |
| 1788448167 | 30° C | 19% | 1017.1 hPa | 0 mm | - | - | - |
| 1788445765 | 28.89° C | 22% | 1017.7 hPa | 0 mm | - | - | - |
| 1788444564 | 28.89° C | 22% | 1017.8 hPa | 0 mm | - | - | - |
| 1788443363 | 28.89° C | 21% | 1017.8 hPa | 0 mm | - | - | - |
* Rain since midnight (hover to see other rain measurements)
** Current wind speed in m/s (hover to see current wind gust speed)